Location: Newark
(35.2672°N, 80.7344°W)
Time: 07:13:28
(UTC+00:00)

Vanguard 2 Rocket - Pass Details

Date: 26 January 2020
Orbit: 554 x 3327 km, 32.9° (Epoch: 20 February)

Event Time Altitude Azimuth Distance (km) Brightness Sun altitude
Rises 10:41:52 0° 254° (WSW) 2,747 - -21.4°
Reaches altitude 10° 10:43:52 10° 250° (WSW) 1,927 - -21.0°
Exits shadow 10:46:24 37° 234° (SW) 1,024 6.8 -20.5°
Maximum altitude 10:48:02 62° 169° (S) 811 6.6 -20.1°
Drops below altitude 10° 10:54:13 10° 90° (E) 2,827 10.6 -18.9°
Sets 10:57:42 0° 88° (E) 4,191 11.8 -18.2°
